GW3620 Weather Reports


Display with metric or nautical units.
time (UTC)temp
F
wind
direction
speed
MPH
gust
MPH
rain 1hr
in
rain 24hr
in
rain mn
in
humidity
%
barometer
mb
20260902095032 76 286 0.0 1.0 0.00 0.00 0.00 74 1016.9
20260902094032 76 0 0.0 0.0 0.00 0.00 0.00 73 1017.0
20260902093049 76 0 0.0 0.0 0.00 0.00 0.00 73 1016.9
20260902092032 76 0 0.0 0.0 0.00 0.00 0.00 72 1016.9
20260902091104 76 0 0.0 0.0 0.00 0.00 0.00 71 1016.9
20260902090032 77 0 0.0 0.0 0.00 0.00 0.00 70 1016.9
20260902085032 77 0 0.0 0.0 0.00 0.00 0.00 70 1016.9
20260902084032 77 285 0.0 6.0 0.00 0.00 0.00 68 1016.9
20260902083032 77 290 1.0 7.0 0.00 0.00 0.00 67 1016.4
20260902082032 77 0 0.0 0.0 0.00 0.00 0.00 67 1016.4
20260902081032 77 0 0.0 0.0 0.00 0.00 0.00 67 1016.5
20260902080030 78 0 0.0 0.0 0.00 0.00 0.00 65 1016.4
20260902075032 78 0 0.0 0.0 0.00 0.00 0.00 64 1016.4
20260902074106 79 0 0.0 0.0 0.00 0.00 0.00 63 1016.3
20260902073049 79 0 0.0 0.0 0.00 0.00 0.00 62 1016.4
20260902072032 79 0 0.0 0.0 0.00 0.00 0.00 61 1016.4
20260902071049 79 0 0.0 0.0 0.00 0.00 0.00 62 1016.6
20260902070032 79 0 0.0 0.0 0.00 0.00 0.00 62 1016.5
20260902065030 79 0 0.0 0.0 0.00 0.00 0.00 62 1016.5
20260902064032 80 0 0.0 0.0 0.00 0.00 0.00 62 1016.4
20260902063049 80 14 0.0 1.0 0.00 0.00 0.00 62 1016.4
20260902062032 80 14 0.0 1.0 0.00 0.00 0.00 62 1016.4
20260902061049 80 21 0.0 3.0 0.00 0.00 0.00 63 1016.6
20260902060032 80 0 0.0 0.0 0.00 0.00 0.00 62 1016.5
20260902055030 80 52 0.0 1.0 0.00 0.00 0.00 62 1016.5
20260902054030 81 37 0.0 1.0 0.00 0.00 0.00 62 1016.6
20260902053032 81 41 0.0 1.0 0.00 0.00 0.00 62 1016.8
20260902052032 81 43 0.0 3.0 0.00 0.00 0.00 62 1016.8
20260902051032 81 0 0.0 0.0 0.00 0.00 0.00 61 1017.0
20260902050032 81 0 0.0 0.0 0.00 0.00 0.00 61 1016.9
20260902045049 82 55 0.0 1.0 0.00 0.00 0.00 60 1016.9
20260902044030 82 49 0.0 1.0 0.00 0.00 0.00 60 1016.8
20260902043032 82 49 0.0 1.0 0.00 0.00 0.00 60 1016.7
20260902042032 82 45 0.0 1.0 0.00 0.00 0.00 59 1016.7
20260902041032 83 339 0.0 3.0 0.00 0.00 0.00 59 1016.7
20260902040049 83 0 0.0 0.0 0.00 0.00 0.00 57 1016.7
20260902035032 83 0 0.0 0.0 0.00 0.00 0.00 56 1016.7
20260902034032 84 0 0.0 0.0 0.00 0.00 0.00 54 1016.1
20260902033030 84 0 0.0 0.0 0.00 0.00 0.00 53 1016.1
20260902032032 84 0 0.0 0.0 0.00 0.00 0.00 53 1016.1
20260902031032 84 0 0.0 0.0 0.00 0.00 0.00 53 1015.8
20260902030049 84 0 0.0 0.0 0.00 0.00 0.00 52 1015.4
20260902025032 85 0 0.0 0.0 0.00 0.00 0.00 51 1015.4
20260902024032 85 0 0.0 0.0 0.00 0.00 0.00 49 1015.0
20260902023032 86 0 0.0 0.0 0.00 0.00 0.00 47 1015.1
20260902022047 87 0 0.0 0.0 0.00 0.00 0.00 45 1015.1
20260902021032 87 0 0.0 0.0 0.00 0.00 0.00 43 1015.2
20260902020032 88 0 0.0 0.0 0.00 0.00 0.00 42 1014.9
20260902015030 89 281 0.0 3.0 0.00 0.00 0.00 40 1014.9
20260902014030 90 286 1.0 3.0 0.00 0.00 0.00 39 1014.7
20260902013032 90 277 2.0 9.0 0.00 0.00 0.00 39 1014.8
20260902012030 91 278 5.0 9.0 0.00 0.00 0.00 38 1014.8
20260902011030 91 285 2.0 9.0 0.00 0.00 0.00 38 1014.9
20260902010032 91 286 4.0 10.0 0.00 0.00 0.00 38 1015.0
20260902005030 92 273 4.0 9.0 0.00 0.00 0.00 38 1015.0
20260902004047 92 88 4.0 7.0 0.00 0.00 0.00 38 1015.1
20260902003030 92 271 4.0 9.0 0.00 0.00 0.00 38 1015.2
20260902002030 92 87 2.0 10.0 0.00 0.00 0.00 38 1015.2
20260902001047 92 278 3.0 7.0 0.00 0.00 0.00 38 1015.3
20260902000030 92 85 4.0 9.0 0.00 0.00 0.00 38 1015.4
20260901235030 92 77 7.0 10.0 0.00 0.00 0.00 38 1015.4
20260901234030 93 67 3.0 10.0 0.00 0.00 0.00 38 1015.2
20260901233030 93 79 4.0 9.0 0.00 0.00 0.00 39 1015.2
20260901232030 93 288 3.0 9.0 0.00 0.00 0.00 39 1015.2
20260901231030 93 273 7.0 13.0 0.00 0.00 0.00 40 1015.4
20260901230030 93 82 6.0 13.0 0.00 0.00 0.00 40 1015.6
20260901225030 93 274 4.0 10.0 0.00 0.00 0.00 40 1015.6
20260901224030 93 80 3.0 10.0 0.00 0.00 0.00 40 1015.6
20260901223047 93 72 3.0 7.0 0.00 0.00 0.00 40 1015.9
20260901222030 92 82 2.0 7.0 0.00 0.00 0.00 41 1015.9
20260901221032 92 86 4.0 10.0 0.00 0.00 0.00 41 1015.8
20260901220030 92 273 3.0 7.0 0.00 0.00 0.00 41 1016.2
20260901215047 92 81 4.0 9.0 0.00 0.00 0.00 41 1016.2
20260901214030 92 279 2.0 10.0 0.00 0.00 0.00 41 1016.3
20260901213030 92 38 1.0 7.0 0.00 0.00 0.00 41 1016.5
20260901212030 92 273 0.0 7.0 0.00 0.00 0.00 41 1016.5
20260901211032 92 274 3.0 9.0 0.00 0.00 0.00 41 1016.8
20260901210030 92 57 0.0 4.0 0.00 0.00 0.00 40 1017.1
20260901205032 91 58 0.0 1.0 0.00 0.00 0.00 40 1017.1
20260901204030 91 83 2.0 7.0 0.00 0.00 0.00 41 1017.6
20260901203032 91 83 4.0 10.0 0.00 0.00 0.00 41 1017.6
20260901202032 91 75 1.0 7.0 0.00 0.00 0.00 42 1017.6
20260901201032 90 46 1.0 7.0 0.00 0.00 0.00 42 1017.5
20260901200032 90 66 0.0 7.0 0.00 0.00 0.00 42 1017.9
20260901195032 90 343 1.0 4.0 0.00 0.00 0.00 43 1017.9
20260901194032 90 0 0.0 0.0 0.00 0.00 0.00 44 1018.2
20260901193032 89 0 0.0 0.0 0.00 0.00 0.00 44 1018.2
20260901192032 89 56 0.0 3.0 0.00 0.00 0.00 45 1018.2
20260901191049 88 64 1.0 3.0 0.00 0.00 0.00 45 1018.5
20260901190032 88 357 1.0 7.0 0.00 0.00 0.00 45 1018.7
20260901185032 88 38 1.0 4.0 0.00 0.00 0.00 46 1018.7
20260901184032 88 355 1.0 7.0 0.00 0.00 0.00 47 1018.9
20260901183030 87 337 0.0 3.0 0.00 0.00 0.00 48 1019.1
20260901182047 86 63 2.0 7.0 0.00 0.00 0.00 49 1019.1
20260901181032 86 47 2.0 6.0 0.00 0.00 0.00 49 1018.9
20260901180032 86 53 1.0 4.0 0.00 0.00 0.00 50 1018.9
20260901175032 86 75 0.0 3.0 0.00 0.00 0.00 50 1018.9
20260901174049 86 312 0.0 4.0 0.00 0.00 0.00 50 1019.0
20260901173032 85 335 0.0 1.0 0.00 0.00 0.00 51 1019.0
20260901172030 85 314 1.0 4.0 0.00 0.00 0.00 53 1019.0
20260901171047 84 302 0.0 3.0 0.00 0.00 0.00 55 1019.2
20260901170032 84 320 1.0 6.0 0.00 0.00 0.00 57 1019.2
20260901165032 83 330 0.0 3.0 0.00 0.00 0.00 58 1019.2
20260901164032 82 331 2.0 6.0 0.00 0.00 0.00 59 1019.1
20260901163032 82 326 2.0 6.0 0.00 0.00 0.00 60 1019.2
20260901162032 82 341 0.0 1.0 0.00 0.00 0.00 61 1019.2
20260901161030 81 339 0.0 3.0 0.00 0.00 0.00 62 1019.1
20260901160030 80 338 0.0 3.0 0.00 0.00 0.00 63 1019.3
20260901155049 80 339 0.0 3.0 0.00 0.00 0.00 63 1019.3
20260901154032 80 343 0.0 1.0 0.00 0.00 0.00 64 1019.3
20260901153032 79 18 0.0 4.0 0.00 0.00 0.00 65 1019.3
20260901152032 79 358 0.0 6.0 0.00 0.00 0.00 65 1019.3
20260901151032 79 74 0.0 1.0 0.00 0.00 0.00 65 1019.3
20260901150047 78 0 0.0 0.0 0.00 0.00 0.00 67 1019.3
20260901145031 77 0 0.0 0.0 0.00 0.00 0.00 68 1019.3
20260901144049 75 0 0.0 0.0 0.00 0.00 0.00 72 1019.6
20260901143032 74 0 0.0 0.0 0.00 0.00 0.00 75 1019.6
20260901142032 72 52 0.0 1.0 0.00 0.00 0.00 79 1019.6
20260901141032 71 49 2.0 4.0 0.00 0.00 0.00 81 1019.4
20260901140032 70 63 1.0 6.0 0.00 0.00 0.00 84 1019.6
20260901135030 69 70 0.0 3.0 0.00 0.00 0.00 86 1019.6
20260901134049 69 82 0.0 4.0 0.00 0.00 0.00 86 1019.6
20260901133031 69 63 1.0 4.0 0.00 0.00 0.00 86 1019.5
20260901132032 69 88 0.0 3.0 0.00 0.00 0.00 86 1019.5
20260901131032 69 271 0.0 1.0 0.00 0.00 0.00 85 1019.1
20260901130032 69 0 0.0 0.0 0.00 0.00 0.00 85 1018.7
20260901125032 70 282 0.0 4.0 0.00 0.00 0.00 84 1018.7
20260901124030 70 0 0.0 0.0 0.00 0.00 0.00 83 1018.5
20260901123032 69 74 0.0 4.0 0.00 0.00 0.00 84 1018.5
20260901122032 69 0 0.0 0.0 0.00 0.00 0.00 85 1018.5
20260901121030 69 0 0.0 0.0 0.00 0.00 0.00 86 1017.9
20260901120032 69 0 0.0 0.0 0.00 0.00 0.00 87 1018.1
20260901115032 69 276 0.0 1.0 0.00 0.00 0.00 89 1018.1
20260901114029 69 276 0.0 3.0 0.00 0.00 0.00 89 1018.1
20260901113030 69 278 0.0 1.0 0.00 0.00 0.00 89 1018.2
20260901112032 69 0 0.0 0.0 0.00 0.00 0.00 90 1018.2
20260901111032 69 0 0.0 0.0 0.00 0.00 0.00 90 1018.2
20260901110049 69 312 0.0 1.0 0.00 0.00 0.00 90 1018.2
20260901105032 69 320 0.0 1.0 0.00 0.00 0.00 89 1018.2
20260901104030 70 0 0.0 0.0 0.00 0.00 0.00 89 1018.2
20260901103030 70 0 0.0 0.0 0.00 0.00 0.00 88 1018.1
20260901102030 70 0 0.0 0.0 0.00 0.00 0.00 88 1018.1
20260901101032 70 0 0.0 0.0 0.00 0.00 0.00 87 1018.4
20260901100032 70 0 0.0 0.0 0.00 0.00 0.00 87 1018.5